ARIANE 5 R/B, 38993

Orbit data source: Space-Track

ARIANE 5 R/B, 38993 is space debris in HEO originally from a launch on Sat, 10 Nov 2012 UTC launched from the French Guiana (FRGUI). Debris objects in space refer to the collection of defunct objects orbiting the Earth. Examples of debris include non-operational satellites, rocket bodies, and fragments generated from explosions, collisions, or faulty payload assembly.

Loading next visibility...
Identifier
38993, 2012-062C
Orbit
HEO
Country
Flag of FRFR
Related business
Manufacturer
EADS/LV
Mission
Spacecraft
Bus & Motor
ESC-A, Unknown motor
Mass
~5,000 kg wet, ~5,000 kg dry
Launch date (UTC)
2012-11-10 (13 years ago)
Launch vehicle
Unknown
Launch site
French Guiana (FRGUI)
Object type
Payload
Rocket body
Debris
Shape & HBR
Cyl + 1 Nozzle, 3.5 m
Radar Cross Section
41.627 m², Large (>1 m²)

Expand to show TLE details & history
Last TLE update: 1 day ago

TLE from 1 day ago
0 ARIANE 5 R/B
1 38993U 12062C   25258.35366542  .00010391  00000-0  15621-2 0  9990
2 38993   2.3739 166.5496 6964565 195.6168 121.1023  2.70150026116384
Epoch: 2025-09-15T08:29Z
TLE epoch observation values (Epoch: 2025-09-15T08:29:16.692Z)
Latitude
0.00008°
Longitude
44.80809°
Altitude
27,739.157 km
Speed
2.25 km/s
True Right ascension
11h 06m 44s
True Declination
0° 00' 00"
Sunlit
Object was in daylight at epoch
Visualization orbit readout
Latitude
Unknown
Longitude
Unknown
Altitude
Unknown
Speed
Unknown
Apparent Right ascension
Unknown
Apparent Declination
Unknown
Sunlit
N/A
Visualization observer readout
Local Sidereal Time
02:38:55
Azimuth
Unknown
Elevation
Unknown
Doppler factor
Unknown
Orbital elements
Apogee altitude
30,574.919 km
Perigee altitude
233.798 km
Semi-major axis
21,782.496 km
Eccentricity
0.69646
Inclination
2.3739°
RAAN
166.5496°
Arg. of periapsis
195.6168°
True anomaly
164.51187°
Mean anomaly
121.1023°
Eccentric anomaly
144.35616°
Mean motion
0.67512 °/min
Orbital period
533.24 mins
BSTAR
0.0015621
Loading maneuver chart data...
Computing Atmospheric mass density...
Loading historical data...
Loading historical data...
Loading historical data...
Loading historical data...
Loading historical data...
Loading historical data...
Loading historical data...
Other satellites on launch #62 in the year 2012 (2012-11-10 UTC)

Documentation

Showing up to 5 results
|